Location: Oshawa
(43.9000°N, 78.8670°W)
Time: 13:12:45
(UTC-04:00)

Explorer 7 - Visible Passes

Search period start: 27 September 2016 00:00
Search period end: 07 October 2016 00:00
Orbit: 486 x 686 km, 50.3° (Epoch: 26 September)

Date Brightness Start Highest point End Pass type
(mag) Time Alt. Az. Time Alt. Az. Time Alt. Az.
27 Sep 9.3 04:09:33 19° ENE 04:09:33 19° ENE 04:10:44 10° ENE visible
27 Sep 7.9 05:45:57 21° NW 05:47:51 32° N 05:51:17 10° ENE visible
28 Sep 9.1 04:15:33 21° NE 04:15:33 21° NE 04:16:57 10° ENE visible
28 Sep 8.0 05:51:58 17° NW 05:54:16 30° N 05:57:39 10° ENE visible
29 Sep 9.0 04:21:34 22° NE 04:21:34 22° NE 04:23:10 10° NE visible
29 Sep 8.0 05:57:59 14° NW 06:00:41 31° N 06:04:07 10° ENE visible
30 Sep 8.9 04:27:36 23° NE 04:27:36 23° NE 04:29:27 10° ENE visible
30 Sep 7.9 06:04:00 13° NW 06:07:06 35° N 06:10:36 10° ENE visible
01 Oct 8.8 04:33:39 25° NNE 04:33:39 25° NNE 04:35:46 10° ENE visible
01 Oct 7.6 06:10:04 12° NW 06:13:29 42° NNE 06:17:05 10° E visible
02 Oct 8.6 04:39:45 27° NNE 04:39:45 27° NNE 04:42:10 10° ENE visible
02 Oct 7.1 06:16:09 11° WNW 06:19:48 56° NNE 06:23:31 10° ESE visible
03 Oct 8.3 04:45:54 30° NNE 04:45:54 30° NNE 04:48:38 10° ENE visible
03 Oct 6.6 06:22:19 11° WNW 06:26:05 82° NNE 06:29:51 10° ESE visible
04 Oct 8.0 04:52:07 36° NE 04:52:07 36° NE 04:55:07 10° E visible
04 Oct 6.6 06:28:32 10° WNW 06:32:16 65° SW 06:36:00 10° SE visible
05 Oct 7.7 04:58:26 44° NE 04:58:26 44° NE 05:01:34 10° E visible
05 Oct 7.2 06:34:51 10° WNW 06:38:25 39° SW 06:41:55 10° SSE visible
06 Oct 7.3 05:04:51 54° E 05:04:51 54° E 05:07:57 10° ESE visible
06 Oct 7.9 06:41:20 10° W 06:44:27 24° SW 06:47:31 10° SSE visible
